www.pogodaiklimat.ru

Погода и климат >> Архив погоды >> Россия >> город Санкт-Петербург >> Кронштадт


ПОГОДА в Кронштадте

  • Прогноз погоды в Кронштадте
  • Монитор погоды в Кронштадте
  • Климат города

АРХИВ ПОГОДЫ в Кронштадте

Время (UTC), дата Ветер
(напр.,м/с)
 
Видим.   Явления Облачность Т
(С)
Тd
(С)
f
(%)
Тe
(С)
Тes
(С)
Комфортность P
(гПа)
Po
(гПа)
Тmin
(С)
Tmax
(С)
R
(мм)
R24
(мм)
S
(см)
12 15.09 Ю 2 10 км 8/3 600 м
[Cu med, cong Ac trans]
+17.1 +10.4 65 +17 +19 1014.3 1013.7
15 15.09 Ю 3
{11}
10 км 10/3 600 м
[Cu Sc Ac As]
+17.0 +10.2 64 +17 +17 1013.2 1012.6
18 15.09 Ю 3 20 км 10/0
[Ac As]
+15.6 +10.3 71 +15 +15 1012.4 1011.8 +18.7
21 15.09 Ю 4 20 км 10/0
[Ac As]
+15.0 +9.8 71 +14 +14 1011.2 1010.6
00 16.09 Ю 2 4000 м слабый дождь 10/0 300 м
[As op]
+14.0 +10.6 80 +13 +13 1009.4 1008.8
03 16.09 СЗ 1 4000 м слабый дождь 10/0 300 м
[As op]
+12.3 +11.4 94 +12 +12 1008.4 1007.8 +11.5
06 16.09 ЮЗ 2 10 км слабый ливневой дождь 8/5 300 м
[Cb calv Ac trans]
+11.9 +11.1 95 +11 +11 1009.1 1008.5 +11.0 4
09 16.09 З 3 20 км {ливн. осадки} 8/6 300 м
[Cu med, cong Ac trans]
+14.2 +10.0 76 +13 +15 1011.1 1010.5
12 16.09 З 4 20 км {ливн. осадки} 4/4 300 м
[Cu hum]
+15.2 +7.6 60 +14 +16 1012.2 1011.6
15 16.09 С 4 20 км гроза без осадков 6/6 300 м
[Cb cap]
+14.0 +6.8 62 +13 +13 1012.9 1012.3
18 16.09 ЮЗ 3 20 км в посл. час гроза {ливн. осадки} 8/8 300 м
[Cb cap]
+13.4 +9.9 79 +12 +12 1012.9 1012.3 +16.8 4
21 16.09 ЮЗ 4 20 км ясно +12.2 +9.7 85 +10 +10 1013.2 1012.6
00 17.09 ЮЗ 3 20 км 4/4 300 м
[Sc]
+11.9 +9.3 84 +10 +10 1012.8 1012.2
03 17.09 ЮЗ 4 20 км 6/0
[Ci fib]
+10.9 +9.5 91 +8 +8 1012.7 1012.1 +10.6
06 17.09 ЮЗ 5 20 км {ливн. осадки} 3/3 600 м
[Sc]
+11.0 +8.8 86 +8 +9 1012.1 1011.5 +10.0 0.0
09 17.09 Ю 5 20 км 10/0
[Ac As]
+13.2 +9.7 79 +11 +12 1010.8 1010.2
12 17.09 Ю 7-10
{11}
4000 м дождь 10/5 300 м
[Frnb Ac As]
+12.3 +10.6 89 +9 +10 1006.9 1006.3
15 17.09 Ю 6-12
{12}
4000 м слабый дождь 10/4 300 м
[Frnb Ac As]
+12.8 +11.9 94 +10 +10 1003.7 1003.1
18 17.09 ЮЗ 7-14
{14}
4000 м слабый дождь 10/6 300 м
[Frnb Ac As]
+14.8 +13.0 89 +13 +13 1002.8 1002.2 +14.9 4
21 17.09 З 6-12
{14}
20 км {ливн. осадки, дождь} 10/8 300 м
[Cb calv Ac As]
+14.9 +10.5 75 +13 +13 1004.0 1003.4
00 18.09 З 6-12
{14}
20 км {ливн. осадки, дождь} 10/10 600 м
[Sc]
+13.2 +9.7 79 +11 +11 1006.2 1005.6
03 18.09 З 5-11
{12}
20 км 3/3 600 м
[Cb calv]
+11.6 +10.0 90 +9 +9 1009.8 1009.2 +11.0
06 18.09 З 4
{11}
20 км 9/1 300 м
[Cu hum Ac cast Ci fib]
+13.8 +8.4 70 +12 +13 1011.6 1011.0 +11.0 3
09 18.09 З 4 20 км 10/3 600 м
[Cu Sc Cs]
+14.8 +7.6 62 +14 +16 1013.0 1012.4
12 18.09 З 4
{10}
10 км 9/3 600 м
[Cu hum Ac trans Ci fib]
+15.6 +9.4 67 +15 +16 1013.2 1012.6
15 18.09 ЮЗ 4 10 км 10/8 300 м
[Cb calv Ac und]
+15.0 +10.0 72 +14 +14 1012.4 1011.8
18 18.09 Ю 2 10 км слабый ливневой дождь 10/10 300 м
[Cb calv]
+14.2 +11.6 84 +14 +14 1012.3 1011.7 +16.1 0.0
21 18.09 Ю 3 20 км {ливн. осадки} 10/10 300 м
[St]
+13.6 +12.5 93 +12 +12 1010.3 1009.7
00 19.09 ЮЗ 4 20 км {ливн. осадки} 10/10 300 м
[St]
+15.0 +13.2 89 +14 +14 1009.1 1008.5
03 19.09 ЮЗ 4 20 км 10/10 300 м
[St]
+14.4 +12.2 87 +13 +13 1009.1 1008.5 +12.5
06 19.09 ЮЗ 2 20 км 1/0
[Ci fib]
+14.2 +12.0 87 +14 +15 1008.3 1007.7 +12.5 0.0
09 19.09 ЮЗ 3 20 км ясно +17.4 +12.8 74 +17 +22 1008.0 1007.4
12 19.09 ЮЗ 1 20 км 3/0
[Ac trans]
+20.9 +14.4 66 +25 +29 комфорт 1006.3 1005.7
15 19.09 З 4
{11}
10 км ясно +17.9 +15.2 84 +18 +18 1006.6 1006.0
18 19.09 З 3 20 км 3/0
[Ac trans]
+16.5 +14.0 85 +16 +16 1007.1 1006.5 +22.0
21 19.09 З 6-12
{13}
20 км 3/0
[Ac trans]
+16.4 +13.8 85 +15 +15 1007.5 1006.9
00 20.09 ЮЗ 4
{12}
10 км 6/6 600 м
[Sc]
+16.0 +14.1 88 +15 +15 1008.4 1007.8
03 20.09 ЮЗ 4 10 км 1/0
[Ac trans]
+14.5 +13.6 94 +13 +13 1009.4 1008.8 +14.0
06 20.09 ЮЗ 4 10 км 6/1 600 м
[Sc Ac trans Ci fib]
+14.8 +13.0 89 +14 +14 1010.1 1009.5 +14.0
09 20.09 ЮЗ 3 10 км 10/3 600 м
[Sc Ac trans]
+18.0 +14.2 78 +18 +19 1010.3 1009.7
12 20.09 ЮЗ 6-10
{10}
10 км 6/3 600 м
[Sc Ac trans Ci fib]
+19.9 +14.2 70 +22 +23 комфорт 1010.1 1009.5
15 20.09 ЮЗ 7-13
{13}
10 км 4/1 600 м
[Sc Ci fib]
+19.5 +14.9 75 +21 +21 комфорт 1009.9 1009.3
18 20.09 ЮЗ 5-10
{13}
20 км ясно +18.8 +13.2 70 +19 +19 1009.6 1009.0 +21.0
21 20.09 ЮЗ 4
{10}
20 км 3/0
[Ci fib]
+17.2 +14.1 82 +17 +17 1009.8 1009.2
00 21.09 ЮЗ 5
{10}
20 км 8/0
[Ac trans]
+17.2 +13.7 80 +17 +17 1009.8 1009.2
03 21.09 ЮЗ 4 20 км 10/10 600 м
[Sc]
+16.2 +14.1 87 +15 +15 1011.0 1010.4 +16.0
06 21.09 ЮЗ 4 20 км 6/0
[Cs]
+16.0 +14.1 88 +15 +16 1011.6 1011.0 +15.2
09 21.09 ЮЗ 3 20 км 10/0
[Ac As]
+17.6 +13.4 76 +18 +19 1012.0 1011.4
12 21.09 ЮЗ 5 20 км 3/3 600 м
[Sc Cc]
+19.6 +14.5 72 +21 +23 комфорт 1012.0 1011.4
15 21.09 Ю 2 20 км 4/3 600 м
[Sc Cs]
+19.7 +14.8 73 +22 +22 комфорт 1011.0 1010.4
18 21.09 Ю 4-10
{10}
20 км 6/0
[Ac trans]
+18.9 +14.4 75 +20 +20 1008.6 1008.0 +20.6
21 21.09 Ю 6-10
{11}
20 км 6/0
[Ac trans]
+18.9 +14.2 74 +19 +19 1007.0 1006.4
00 22.09 Ю 2
{10}
20 км 8/0
[Ac trans]
+17.7 +14.8 83 +18 +18 1004.8 1004.2
03 22.09 ЮВ 2 20 км 3/0
[Ci fib]
+17.3 +14.0 81 +18 +18 1002.0 1001.4 +16.2
06 22.09 Ю 8-10
{10}
10 км ясно +18.0 +12.8 72 +17 +17 999.4 998.8 +16.2
09 22.09 З 7-15
{16}
4000 м слабый дождь 10/10 300 м
[Frnb Ns]
+14.8 +10.6 76 +13 +13 1001.3 1000.7

 

Местоположение метеостанции Кронштадт (город Санкт-Петербург, Россия): широта 59.98 долгота 29.76 высота над уровнем моря 5 м.

В архиве по умолчанию представлена погода в Кронштадте за последнюю неделю. Архивные данные за месяц целиком и за предыдущие месяцы, начиная с января 2011 года, Вы можете получить, выбрав интересующий диапазон дат из раскрывающегося списка и нажав кнопку "Ввод!".


*Определитесь, кто Вы:
робот инопланетянин человек

Внимание! Время в таблицах - всемирное. Для получения местного времени необходимо прибавить поправку, которая в Кронштадте равна 3 ч.

Смотрите также архив погоды в соседних городах и на ближайших метеорологических станциях:

Погода в Ломоносове (город Санкт-Петербург, Россия) (7 км)
Погода в Лисьем Носу (город Санкт-Петербург, Россия) (13 км)
Погода в Санкт-Петербурге (город Санкт-Петербург, Россия) (30 км)
Погода в Шепелево (Ленинградская область, Россия) (30 км)
Погода в Рощино (Ленинградская область, Россия) (31 км)
Погода в Сосновом Бору (Ленинградская область, Россия) (37 км)
Погода в Озерках (Ленинградская область, Россия) (49 км)
Погода в Воейково (город Санкт-Петербург, Россия) (52 км)
Погода в Волосово (Ленинградская область, Россия) (63 км)
Погода в Шлиссельбурге (Ленинградская область, Россия) (69 км)

Пояснения к столбцам:

Ветер - указаны скорость ветра в м/с - средняя за 10 мин, порывы в срок и между сроками (в фигурных скобках) и направление, откуда дует ветер: С - северный, СВ - северо-восточный, В - восточный, ЮВ - юго-восточный, Ю - южный, ЮЗ - юго-западный, З - западный, СЗ - северо-западный.
Видимость - горизонтальная дальность видимости в метрах или километрах. При видимости от 1 до 10 км при отсутствии осадков обычно наблюдается дымка, при ухудшении видимости до 1 км и менее - туман. В сухую погоду видимость может ухудшаться дымом, пылью или мглою.
Явления - указаны атмосферные явления, наблюдавшиеся в срок или в последний час перед сроком; фигурными скобками обозначены явления, наблюдавшиеся между сроками (за 1-3 часа до срока); квадратными скобками обозначены град или гололедные отложения с указанием их диаметра в мм.
Облачность - указаны через наклонную черту общая и нижняя облачность в баллах и высота нижней границы облаков в метрах; квадратными скобками обозначены формы облаков: Ci - перистые, Cs - перисто-слоистые, Cc - перисто-кучевые, Ac - высококучевые, As - высокослоистые, Sc - слоисто-кучевые, Ns - слоисто-дождевые, Cu - кучевые, Cb - кучево-дождевые. Подробнее классификацию облаков см. в Атласе облаков (PDF).
T - Температура воздуха - температура, измеренная на высоте 2 м над землей.
Td - Температура точки росы - температура, при понижении до которой содержащийся в воздухе водяной пар достигнет насыщения.
f - Относительная влажность воздуха - влажноcть воздуха, измеренная на высоте 2 м над землей.
Te - Эффективная температура - температура, которую ощущает одетый по сезону человек в тени. Характеристика душности погоды. При расчете учитывается влияние влажности воздуха и скорости ветра на теплоощущения человека.
Tes - Эффективная температура на солнце - температура, которую ощущает человек, с поправкой на солнечный нагрев. Характеристика знойности погоды. Зависит от высоты солнца над горизонтом, облачности и скорости ветра. Ночью, в пасмурную погоду, а также при ветре 12 м/с и более поправка равна нулю.
P - Атмосферное давление - приведенное к уровню моря атмосферное давление.
Po - Атмосферное давление - измеренное на уровне метеостанции атмосферное давление.
Tmin - Минимальная температура - минимум температуры воздуха на высоте 2 м над землей.
Tmax - Максимальная температура - максимум температуры воздуха на высоте 2 м над землей.
R - Количество осадков - Количество выпавших осадков за период времени, мм. При наведении курсора мыши на число - период времени, за который выпало указанное количество осадков.
R24 - Количество осадков - Количество выпавших осадков за 24 часа, мм.
S - Снежный покров - Высота снежного покрова, см. При наведении курсора мыши на число - состояние снежного покрова и степень покрытия местности в баллах.